"Pseudo-MPEC" for RdSH338

Created 2024 May 21 19:22:05 UT using Find_Orb

Click here for an explanation of pseudo-MPECs

 
 Astrometry: 
     RdSH338*KB2024 05 06J(y6j62$Astrometry'@7Ag[/Nf*L,nyPgj7:@:R/dZ/!Jyg('-sY89
     RdSH338 KB2024 05 06N.eNJ(4(+LVylpRU5f6k#MydGU8/@n^jvrbX7nredacted;*GGvqY89
     RdSH338 KB2024 05 06y,,fJclickB1hy^Ac+vU;hereqIS;F%$$Lforc=explanations9Y89

Station data:
(Y89) Proxima Centauri Observatory, Valdin  (N42.222443 W6.988110)  Spain.

Orbital elements:  RdSH338
   Perihelion 2024 Mar 25.61310 +/- 34.2 TT = 14:42:51 (JD 2460395.11310)
Epoch 2024 May  7.0 TT = JDT 2460437.5   Earth MOID: 0.1766   Ma: 0.0416
M  21.71040086 +/- 37               (J2000 ecliptic)             AutoNEOCP
n   0.51219594 +/- 0.495            Peri.  137.82058 +/- 70
a   1.54707710 +/- 0.997            Node    43.37314 +/- 70
e   0.2456325 +/- 0.254             Incl.    4.28501 +/- 28
P   1.92/702.84d           H 21.07  G  0.15   U 12.3  SR
q 1.16706465 +/- 0.469    Q 1.92708954 +/- 32.5
From 3 observations 2024 May 6 (42.2 min); mean residual 0".52
Residuals in arcseconds: 
240506 Y89  .01+  .52+    240506 Y89  .02-  1.0-    240506 Y89  .01+  .52+    

Ephemerides (geocentric):
Date (UTC) HH   RA             Dec           delta  r     elong  mag " sig PA
---- --------  ------------   ------------  ------ ------ -----  --- --------
2024 05 21 19  12 32 28.674   -05 10 53.92  .33288 1.2474 128.6 20.7  23d  86
2024 05 21 20  12 32 33.794   -05 11 58.44  .33308 1.2475 128.6 20.7  23d  86
2024 05 21 21  12 32 38.915   -05 13 02.93  .33327 1.2476 128.6 20.7  24d  86
2024 05 21 22  12 32 44.037   -05 14 07.38  .33347 1.2477 128.6 20.7  24d  86
2024 05 21 23  12 32 49.161   -05 15 11.80  .33366 1.2478 128.6 20.7  24d  86
2024 05 22 00  12 32 54.286   -05 16 16.18  .33386 1.2479 128.5 20.7  24d  86
2024 05 22 01  12 32 59.412   -05 17 20.52  .33405 1.2480 128.5 20.7  24d  86
2024 05 22 02  12 33 04.539   -05 18 24.83  .33425 1.2481 128.5 20.7  24d  86
2024 05 22 03  12 33 09.668   -05 19 29.10  .33444 1.2482 128.5 20.7  24d  86
2024 05 22 04  12 33 14.797   -05 20 33.34  .33464 1.2483 128.5 20.7  24d  86
2024 05 22 05  12 33 19.928   -05 21 37.53  .33483 1.2485 128.5 20.7  24d  86
2024 05 22 06  12 33 25.061   -05 22 41.70  .33503 1.2486 128.5 20.7  24d  86
2024 05 22 07  12 33 30.194   -05 23 45.82  .33523 1.2487 128.5 20.7  24d  86
2024 05 22 08  12 33 35.329   -05 24 49.92  .33542 1.2488 128.4 20.8  24d  86
2024 05 22 09  12 33 40.465   -05 25 53.97  .33562 1.2489 128.4 20.8  24d  86
2024 05 22 10  12 33 45.603   -05 26 57.99  .33581 1.2490 128.4 20.8  24d  86
2024 05 22 11  12 33 50.741   -05 28 01.97  .33601 1.2491 128.4 20.8  24d  86
2024 05 22 12  12 33 55.881   -05 29 05.92  .33621 1.2492 128.4 20.8  24d  86
2024 05 22 13  12 34 01.022   -05 30 09.83  .33640 1.2493 128.4 20.8  24d  86
2024 05 22 14  12 34 06.164   -05 31 13.70  .33660 1.2494 128.4 20.8  24d  86
2024 05 22 15  12 34 11.308   -05 32 17.54  .33680 1.2495 128.3 20.8  24d  86
2024 05 22 16  12 34 16.452   -05 33 21.35  .33700 1.2497 128.3 20.8  24d  86
2024 05 22 17  12 34 21.598   -05 34 25.11  .33719 1.2498 128.3 20.8  24d  86
2024 05 22 18  12 34 26.746   -05 35 28.84  .33739 1.2499 128.3 20.8  24d  86
2024 05 22 19  12 34 31.894   -05 36 32.54  .33759 1.2500 128.3 20.8  24d  86
2024 05 22 20  12 34 37.044   -05 37 36.20  .33779 1.2501 128.3 20.8  24d  86
2024 05 22 21  12 34 42.194   -05 38 39.82  .33798 1.2502 128.3 20.8  24d  86
2024 05 22 22  12 34 47.347   -05 39 43.40  .33818 1.2503 128.2 20.8  24d  86
2024 05 22 23  12 34 52.500   -05 40 46.95  .33838 1.2504 128.2 20.8  24d  86
2024 05 23 00  12 34 57.654   -05 41 50.47  .33858 1.2505 128.2 20.8  24d  86
2024 05 23 01  12 35 02.810   -05 42 53.95  .33878 1.2506 128.2 20.8  24d  86
2024 05 23 02  12 35 07.967   -05 43 57.39  .33898 1.2507 128.2 20.8  24d  86
2024 05 23 03  12 35 13.125   -05 45 00.79  .33917 1.2509 128.2 20.8  24d  86
2024 05 23 04  12 35 18.284   -05 46 04.17  .33937 1.2510 128.2 20.8  24d  86
2024 05 23 05  12 35 23.445   -05 47 07.50  .33957 1.2511 128.2 20.8  24d  86
2024 05 23 06  12 35 28.607   -05 48 10.80  .33977 1.2512 128.1 20.8  24d  86
2024 05 23 07  12 35 33.770   -05 49 14.06  .33997 1.2513 128.1 20.8  24d  86
2024 05 23 08  12 35 38.934   -05 50 17.29  .34017 1.2514 128.1 20.8  24d  86
2024 05 23 09  12 35 44.099   -05 51 20.48  .34037 1.2515 128.1 20.8  24d  86
2024 05 23 10  12 35 49.266   -05 52 23.63  .34057 1.2516 128.1 20.8  24d  86
2024 05 23 11  12 35 54.433   -05 53 26.75  .34077 1.2517 128.1 20.8  24d  86
2024 05 23 12  12 35 59.602   -05 54 29.83  .34097 1.2518 128.1 20.8  24d  86
2024 05 23 13  12 36 04.772   -05 55 32.88  .34117 1.2520 128.0 20.8  24d  86
2024 05 23 14  12 36 09.943   -05 56 35.89  .34137 1.2521 128.0 20.8  24d  86
2024 05 23 15  12 36 15.116   -05 57 38.86  .34157 1.2522 128.0 20.8  24d  86
2024 05 23 16  12 36 20.290   -05 58 41.80  .34177 1.2523 128.0 20.8  24d  86
2024 05 23 17  12 36 25.464   -05 59 44.70  .34197 1.2524 128.0 20.8  24d  86
2024 05 23 18  12 36 30.640   -06 00 47.56  .34217 1.2525 128.0 20.8  24d  86